EST,Max TemperatureF,Mean TemperatureF,Min TemperatureF,Max Dew PointF,MeanDew PointF,Min DewpointF,Max Humidity, Mean Humidity, Min Humidity, Max Sea Level PressureIn, Mean Sea Level PressureIn, Min Sea Level PressureIn, Max VisibilityMiles, Mean VisibilityMiles, Min VisibilityMiles, Max Wind SpeedMPH, Mean Wind SpeedMPH, Max Gust SpeedMPH,PrecipitationIn, CloudCover, Events, WindDirDegrees
2014-2-1,37,30,23,26,20,14,78,59,40,30.29,30.16,29.98,10,10,5,17,8,23,T,4,Snow,194
2014-2-2,43,37,31,35,30,23,96,74,51,30.09,29.97,29.89,10,8,2,16,10,21,0.03,6,Rain,306
2014-2-3,31,23,15,26,21,11,88,81,74,30.30,30.10,30.03,10,4,0,16,9,22,0.29,7,Fog-Snow,355
2014-2-4,29,19,9,17,11,5,84,65,46,30.45,30.36,30.19,10,10,10,13,6,16,0.00,1,,38
2014-2-5,31,24,17,28,22,12,100,91,81,30.21,29.82,29.57,10,2,0,28,13,40,1.01,8,Fog-Rain-Snow,89
2014-2-6,22,16,9,10,7,4,84,71,57,30.27,30.17,29.97,10,9,4,24,11,33,T,2,Snow,308
2014-2-7,25,19,12,8,5,-3,76,58,39,30.28,30.22,30.10,10,10,10,22,13,30,0.00,1,,282
2014-2-8,23,15,7,9,0,-6,67,49,31,30.30,30.21,30.09,10,9,2,15,8,21,T,4,Snow,300
2014-2-9,22,11,0,14,9,-1,96,74,52,30.17,30.00,29.87,10,6,0,18,6,24,0.13,6,Fog-Snow,234
2014-2-10,20,11,2,13,4,-2,80,63,45,30.24,30.09,29.88,10,8,1,23,12,35,T,5,Snow,311
2014-2-11,16,6,-5,0,-2,-7,87,67,46,30.46,30.35,30.24,10,10,10,17,9,23,0.00,0,,318
2014-2-12,17,4,-10,11,-1,-10,91,67,43,30.52,30.40,30.18,10,10,2,16,7,22,T,2,Snow,116
2014-2-13,32,24,16,29,23,11,92,86,80,30.23,29.58,29.13,3,1,0,25,16,36,0.66,8,Fog-Rain-Snow,41
2014-2-14,32,23,14,22,20,16,88,73,58,29.75,29.33,29.07,10,4,0,36,20,50,0.04,6,Fog,296
2014-2-15,28,21,14,25,19,8,88,78,67,29.77,29.65,29.57,10,2,0,30,13,43,0.19,7,Fog-Snow,358
2014-2-16,17,13,8,10,6,2,84,69,54,30.11,29.88,29.69,10,4,1,28,15,37,0.05,7,Snow,310
2014-2-17,28,17,5,5,1,-4,80,55,29,30.38,30.23,30.00,10,8,2,25,11,35,T,4,Snow,322
2014-2-18,30,23,15,24,18,3,96,69,41,30.18,29.98,29.86,10,4,0,22,11,32,0.06,7,Fog-Snow,164
2014-2-19,41,27,13,35,28,11,100,84,68,30.07,29.79,29.63,10,6,0,25,10,36,0.22,6,Fog-Rain-Snow,226
2014-2-20,42,32,21,26,22,16,81,57,33,30.23,30.11,29.95,10,10,10,24,8,33,0.01,4,,188
2014-2-21,46,39,31,41,33,22,100,80,59,29.96,29.80,29.67,10,5,0,30,11,40,0.26,6,Fog-Rain,188
2014-2-22,47,39,31,21,15,13,52,39,26,30.00,29.96,29.89,10,10,10,30,14,43,0.00,0,,264
2014-2-23,45,33,21,27,22,14,81,61,40,30.01,29.93,29.82,10,10,10,18,9,24,0.00,4,,291
2014-2-24,35,26,17,21,12,4,84,63,42,30.05,29.89,29.81,10,6,0,25,14,34,0.01,6,Snow,298
2014-2-25,23,15,6,11,8,1,80,67,54,30.03,29.93,29.83,10,6,1,24,9,32,T,6,Snow,280
2014-2-26,20,8,-4,12,5,-9,88,65,42,29.92,29.82,29.75,10,6,0,24,8,32,0.03,5,Snow,285
2014-2-27,20,9,-3,10,1,-17,76,59,41,30.05,29.67,29.52,10,5,0,29,13,38,0.05,6,Snow,272
2014-2-28,18,7,-5,-5,-10,-15,62,45,28,30.38,30.29,30.08,10,10,10,18,6,26,0.00,0,,292